When you browse on this site, cookies collect data to enhance your experience and personalize the content and advertising you see.
Visit our Privacy Policy to learn more. By continuing to use the site, you agree to this use of cookies and data.
  • In Hungary
  • List of Countries
  • For 7 days
  • Water Temperature
  • Satellite Maps
  • Weather Map
  • News
  • Weather Widgets
  • user-avatar
    Login

    Hourly Weather Libertyville

    Today, 20 February, Wednesday

    Time Temperature Precipitation Wind Pressure Humidity
    00:00 -4°C° 0 mm 3 mps 750 mmHg 81%
    01:00 -5°C° 0 mm 4 mps 749 mmHg 81%
    02:00 -5°C° 0 mm 4 mps 748 mmHg 81%
    03:00 -5°C° 0 mm 4 mps 747 mmHg 81%
    04:00 -6°C° 0.1 mm 5 mps 746 mmHg 83%
    05:00 -6°C° 0.1 mm 6 mps 745 mmHg 84%
    06:00 -4°C° 0 mm 4 mps 743 mmHg 86%
    07:00 -5°C° 0.3 mm 5 mps 742 mmHg 88%
    08:00 -5°C° 0.3 mm 6 mps 741 mmHg 89%
    09:00 -6°C° 0.3 mm 7 mps 740 mmHg 91%
    10:00 -4°C° 0.3 mm 7 mps 739 mmHg 91%
    11:00 -4°C° 0.3 mm 7 mps 738 mmHg 91%
    12:00 -3°C° 0.3 mm 7 mps 736 mmHg 92%
    13:00 -3°C° 0.2 mm 6 mps 736 mmHg 93%
    14:00 -1°C° 0.2 mm 5 mps 735 mmHg 95%
    15:00 -1°C° 0.2 mm 5 mps 734 mmHg 97%
    16:00 -1°C° 0 mm 5 mps 735 mmHg 95%
    17:00 -2°C° 0 mm 6 mps 735 mmHg 92%
    18:00 -2°C° 0 mm 7 mps 735 mmHg 90%
    19:00 -2°C° 0 mm 7 mps 736 mmHg 87%
    20:00 -2°C° 0 mm 6 mps 737 mmHg 85%
    21:00 -3°C° 0 mm 6 mps 738 mmHg 83%
    22:00 -3°C° 0 mm 6 mps 739 mmHg 84%
    23:00 -4°C° 0 mm 6 mps 739 mmHg 85%

    Tomorrow, 21 February, Thursday

    Time Temperature Precipitation Wind Pressure Humidity
    00:00 -5°C° 0 mm 6 mps 740 mmHg 86%
    01:00 -6°C° 0 mm 6 mps 741 mmHg 86%
    02:00 -8°C° 0 mm 6 mps 741 mmHg 85%
    03:00 -9°C° 0 mm 6 mps 742 mmHg 85%
    04:00 -8°C° 0 mm 5 mps 743 mmHg 85%
    05:00 -8°C° 0 mm 5 mps 743 mmHg 85%
    06:00 -10°C° 0 mm 5 mps 744 mmHg 86%
    07:00 -8°C° 0 mm 5 mps 745 mmHg 85%
    08:00 -8°C° 0 mm 5 mps 745 mmHg 83%
    09:00 -7°C° 0 mm 5 mps 746 mmHg 82%
    10:00 -7°C° 0 mm 5 mps 747 mmHg 81%
    11:00 -6°C° 0 mm 5 mps 747 mmHg 80%
    12:00 -5°C° 0 mm 5 mps 748 mmHg 78%
    13:00 -5°C° 0 mm 5 mps 748 mmHg 79%
    14:00 -4°C° 0 mm 4 mps 748 mmHg 79%
    15:00 -3°C° 0 mm 4 mps 748 mmHg 79%
    16:00 -4°C° 0 mm 3 mps 748 mmHg 82%
    17:00 -5°C° 0 mm 3 mps 749 mmHg 84%
    18:00 -5°C° 0 mm 2 mps 749 mmHg 87%
    19:00 -6°C° 0 mm 2 mps 749 mmHg 87%
    20:00 -6°C° 0 mm 2 mps 750 mmHg 88%
    21:00 -6°C° 0 mm 2 mps 751 mmHg 88%
    22:00 -7°C° 0 mm 2 mps 751 mmHg 89%
    23:00 -7°C° 0 mm 2 mps 751 mmHg 89%

    Day after tomorrow, 22 February, Friday

    Time Temperature Precipitation Wind Pressure Humidity
    00:00 -7°C° 0 mm 2 mps 751 mmHg 89%
    01:00 -6°C° 0 mm 1 mps 752 mmHg 89%
    02:00 -7°C° 0 mm 1 mps 752 mmHg 89%
    03:00 -7°C° 0 mm 1 mps 752 mmHg 89%
    04:00 -7°C° 0 mm 1 mps 752 mmHg 89%
    05:00 -7°C° 0 mm 1 mps 752 mmHg 89%
    06:00 -7°C° 0 mm 1 mps 752 mmHg 89%
    07:00 -6°C° 0 mm 1 mps 753 mmHg 88%
    08:00 -6°C° 0 mm 2 mps 753 mmHg 87%
    09:00 -5°C° 0 mm 2 mps 753 mmHg 86%
    10:00 -4°C° 0 mm 2 mps 753 mmHg 86%
    11:00 -3°C° 0 mm 2 mps 753 mmHg 86%
    12:00 -1°C° 0 mm 3 mps 753 mmHg 86%
    13:00 -1°C° 0 mm 3 mps 752 mmHg 83%
    14:00 -1°C° 0 mm 3 mps 751 mmHg 81%
    15:00 0°C° 0 mm 3 mps 751 mmHg 78%
    16:00 -1°C° 0 mm 3 mps 750 mmHg 80%
    17:00 -2°C° 0 mm 3 mps 750 mmHg 81%
    18:00 -2°C° 0 mm 3 mps 749 mmHg 82%
    19:00 -2°C° 0 mm 3 mps 749 mmHg 82%
    20:00 -2°C° 0 mm 3 mps 749 mmHg 81%
    21:00 -2°C° 0 mm 3 mps 748 mmHg 81%
    22:00 -2°C° 0 mm 3 mps 748 mmHg 82%
    23:00 -2°C° 0 mm 3 mps 747 mmHg 82%

    23 February, Saturday

    Time Temperature Precipitation Wind Pressure Humidity
    00:00 -1°C° 0 mm 3 mps 746 mmHg 83%
    01:00 -1°C° 0.1 mm 3 mps 746 mmHg 85%
    02:00 -1°C° 0.1 mm 3 mps 745 mmHg 87%
    03:00 -1°C° 0.1 mm 3 mps 744 mmHg 88%
    04:00 -1°C° 0.6 mm 3 mps 744 mmHg 91%
    05:00 -1°C° 0.6 mm 3 mps 743 mmHg 93%
    06:00 -1°C° 0.6 mm 3 mps 742 mmHg 96%
    07:00 +1°C° 1.9 mm 2 mps 742 mmHg 96%
    08:00 +1°C° 1.9 mm 2 mps 742 mmHg 97%
    09:00 +2°C° 1.9 mm 1 mps 741 mmHg 98%
    10:00 +2°C° 0.7 mm 1 mps 740 mmHg 98%
    11:00 +1°C° 0.7 mm 2 mps 739 mmHg 98%
    12:00 +1°C° 0.7 mm 2 mps 738 mmHg 99%
    13:00 +1°C° 0.3 mm 3 mps 737 mmHg 99%
    14:00 +1°C° 0.3 mm 3 mps 735 mmHg 99%
    15:00 +1°C° 0.3 mm 3 mps 734 mmHg 99%
    16:00 +1°C° 0.6 mm 4 mps 732 mmHg 99%
    17:00 +1°C° 0.6 mm 4 mps 730 mmHg 99%
    18:00 +2°C° 0.6 mm 5 mps 729 mmHg 99%
    19:00 +2°C° 1.1 mm 5 mps 727 mmHg 99%
    20:00 +4°C° 1.1 mm 4 mps 725 mmHg 99%
    21:00 +5°C° 1.1 mm 4 mps 723 mmHg 99%
    22:00 +5°C° 0.4 mm 5 mps 722 mmHg 91%
    23:00 +3°C° 0.4 mm 5 mps 720 mmHg 83%

    24 February, Sunday

    Time Temperature Precipitation Wind Pressure Humidity
    00:00 +3°C° 0.4 mm 6 mps 719 mmHg 75%
    01:00 +3°C° 0.2 mm 6 mps 718 mmHg 80%
    02:00 +2°C° 0.2 mm 6 mps 717 mmHg 84%
    03:00 +2°C° 0.2 mm 7 mps 716 mmHg 89%
    04:00 +1°C° 0.2 mm 9 mps 718 mmHg 86%
    05:00 -1°C° 0.2 mm 11 mps 719 mmHg 83%
    06:00 -1°C° 0.2 mm 13 mps 720 mmHg 79%
    07:00 -1°C° 0.1 mm 13 mps 722 mmHg 77%
    08:00 -2°C° 0.1 mm 13 mps 724 mmHg 75%
    09:00 -2°C° 0.1 mm 13 mps 727 mmHg 72%
    10:00 -2°C° 0.2 mm 13 mps 728 mmHg 72%
    11:00 -2°C° 0.2 mm 12 mps 730 mmHg 71%
    12:00 -3°C° 0.2 mm 12 mps 732 mmHg 70%
    13:00 -3°C° 0.1 mm 12 mps 733 mmHg 69%
    14:00 -3°C° 0.1 mm 12 mps 734 mmHg 69%
    15:00 -4°C° 0.1 mm 11 mps 736 mmHg 68%
    16:00 -4°C° 0 mm 11 mps 737 mmHg 68%
    17:00 -5°C° 0 mm 10 mps 738 mmHg 68%
    18:00 -5°C° 0 mm 10 mps 739 mmHg 68%
    19:00 -7°C° 0 mm 10 mps 741 mmHg 69%
    20:00 -6°C° 0 mm 9 mps 742 mmHg 69%
    21:00 -8°C° 0 mm 9 mps 744 mmHg 69%
    22:00 -8°C° 0 mm 9 mps 745 mmHg 69%
    23:00 -8°C° 0 mm 8 mps 746 mmHg 68%

    25 February, Monday

    Time Temperature Precipitation Wind Pressure Humidity
    00:00 -8°C° 0 mm 8 mps 747 mmHg 67%
    01:00 -9°C° 0 mm 7 mps 748 mmHg 67%
    02:00 -9°C° 0 mm 7 mps 749 mmHg 67%
    03:00 -11°C° 0 mm 7 mps 750 mmHg 67%
    04:00 -10°C° 0 mm 6 mps 750 mmHg 67%
    05:00 -11°C° 0 mm 6 mps 751 mmHg 67%
    06:00 -11°C° 0 mm 5 mps 752 mmHg 68%
    07:00 -12°C° 0 mm 5 mps 753 mmHg 67%
    08:00 -11°C° 0 mm 4 mps 754 mmHg 66%
    09:00 -11°C° 0 mm 4 mps 755 mmHg 65%
    10:00 -10°C° 0 mm 4 mps 755 mmHg 62%
    11:00 -10°C° 0 mm 4 mps 755 mmHg 59%
    12:00 -8°C° 0 mm 3 mps 756 mmHg 55%
    13:00 -7°C° 0 mm 3 mps 755 mmHg 52%
    14:00 -7°C° 0 mm 3 mps 755 mmHg 48%
    15:00 -5°C° 0 mm 2 mps 755 mmHg 45%
    16:00 -5°C° 0 mm 2 mps 755 mmHg 46%
    17:00 -4°C° 0 mm 1 mps 754 mmHg 48%
    18:00 -5°C° 0 mm 0 mps 754 mmHg 49%
    19:00 -4°C° 0 mm 1 mps 754 mmHg 49%
    20:00 -3°C° 0 mm 1 mps 754 mmHg 49%
    21:00 -3°C° 0 mm 1 mps 754 mmHg 49%
    22:00 -5°C° 0 mm 2 mps 754 mmHg 51%
    23:00 -5°C° 0 mm 2 mps 753 mmHg 52%
    Show more